Vorticity
5 4 10 7 8 4 -0 3 8 8 11 5 16 4 10 8 13 7 3 11 16 7 7 6 10 10 9 17 31 29 17 6 20 15 11 15 4 7 9 1 15 30 38 37
4 1 7 4 5 3 4 3 6 6 10 7 13 14 8 14 11 6 3 3 17 15 9 7 6 8 6 6 12 18 26 33 24 17 4 8 16 34 28 26 17 6 2 3
5 7 6 3 3 -0 8 11 4 6 2 4 11 11 4 15 3 -9 15 5 14 16 7 9 8 10 8 5 3 5 7 6 12 22 28 22 14 8 4 1 3 3 4 4
15 7 5 4 4 3 5 12 6 5 4 11 11 15 8 4 15 16 18 9 8 12 9 8 7 6 7 7 6 6 7 7 8 6 5 4 3 3 3 4 4 6 7 6
6 13 9 6 13 7 16 7 8 5 7 6 13 8 5 -2 18 15 12 9 4 8 9 9 7 7 7 9 8 8 6 3 4 5 5 6 7 9 11 11 9 8 6 6
3 3 3 7 8 5 12 8 4 9 5 9 14 6 21 2 5 7 8 6 6 12 5 6 7 10 10 7 8 8 6 5 3 5 3 4 5 4 4 5 6 7 6 6
7 10 8 10 8 4 3 2 5 4 3 14 9 9 1 16 -2 11 13 5 4 6 12 8 5 4 -1 10 9 7 6 9 10 9 10 9 7 7 12 7 5 7 5 7
9 5 7 21 14 6 7 8 11 10 6 2 10 5 21 4 -0 13 23 6 17 9 12 9 6 3 0 -3 12 9 6 6 7 9 7 6 6 6 5 7 8 6 6 4
13 7 7 10 13 12 5 4 21 9 5 4 4 7 -0 5 12 15 -4 6 -4 7 11 8 8 6 5 7 5 6 6 5 6 5 5 6 6 6 5 5 6 4 3 4
12 16 11 10 10 8 9 13 12 8 5 7 8 9 4 5 5 15 10 7 4 -0 12 11 19 11 10 7 5 5 2 2 2 3 5 4 4 5 7 4 3 -1 -1 2
10 16 8 20 6 8 2 3 11 15 4 7 5 30 7 5 18 10 -11 24 -0 6 -0 2 14 18 12 5 7 3 6 10 6 4 4 7 4 -0 2 5 8 6 4 0
6 4 9 12 7 7 8 3 5 11 7 9 1 16 13 16 3 3 0 -10 1 15 -0 -1 7 5 14 12 14 11 6 7 14 5 1 1 14 20 9 16 60 -1 30 -1
6 13 6 15 12 4 4 -0 4 14 12 10 -0 8 14 8 8 -1 0 7 -0 19 1 1 11 10 4 4 10 7 6 5 4 11 16 13 12 -1 -2 4 9 14 2 98
18 4 5 2 16 6 4 6 7 20 2 8 -1 3 7 12 -2 -2 -2 2 9 3 -2 6 9 9 3 6 6 7 5 6 5 9 9 8 6 6 7 5 6 5 5 6
8 15 14 6 9 10 26 22 4 17 13 8 -6 12 -4 1 3 9 10 8 3 4 11 -2 7 17 1 -4 29 7 2 2 5 5 2 5 6 6 7 3 4 6 7 8
20 2 8 14 6 4 3 9 24 24 8 3 -1 8 9 8 7 -5 2 3 11 5 1 1 7 -4 4 17 18 19 1 11 11 9 16 14 9 5 4 5 4 5 5 7
12 33 3 5 -2 3 13 0 10 14 20 6 4 -0 0 11 10 6 6 9 3 -10 -5 -1 2 5 21 9 10 17 10 8 11 13 14 11 5 6 3 5 6 6 6 6
55 -1 7 15 8 5 2 19 25 6 18 9 3 -2 -2 4 8 10 9 13 5 8 11 12 4 9 15 1 7 13 -2 5 6 7 5 4 6 0 4 4 5 6 6 7
-24 5 44 1 1 19 12 -5 52 4 8 18 -1 -0 7 10 7 10 -2 5 8 2 7 5 4 4 7 13 12 7 4 5 4 5 6 4 4 4 5 6 7 6 6 8
20 -3 -9 24 7 21 7 5 33 23 4 17 14 -2 -9 8 0 13 18 14 10 24 15 6 5 11 10 12 5 12 12 8 7 7 7 6 4 6 5 5 5 5 9 10
9 8 6 -27 -0 17 3 1 14 43 10 8 27 13 8 7 4 5 2 9 7 1 4 5 1 9 11 8 6 11 12 11 9 6 5 5 6 6 7 7 8 7 9 9
13 -6 40 -8 17 4 4 -5 16 12 4 17 12 20 10 8 9 6 7 -1 -3 11 12 13 9 5 6 7 10 8 7 7 9 10 11 11 10 8 7 8 2 6 10 9
36 9 -1 -5 9 3 10 0 18 16 10 37 -6 11 13 -8 7 13 6 -3 5 6 4 2 4 3 10 10 7 5 4 3 5 5 8 9 7 7 5 5 5 7 6 5
28 18 15 -10 11 22 -4 5 12 11 -3 15 23 27 0 4 11 -2 -7 2 -3 7 10 12 9 11 11 -1 5 4 3 3 0 4 15 8 8 9 9 9 11 11 8 8
33 11 14 18 11 31 19 14 7 -4 17 10 6 9 10 31 -2 20 22 19 17 2 -0 -6 -1 5 -1 -0 12 4 -1 1 1 5 11 7 8 7 7 6 2 4 6 7
17 22 7 -3 -7 11 11 1 9 13 23 25 3 13 7 14 22 16 2 -2 -5 8 4 -5 9 4 -3 -8 -10 3 9 -2 3 1 -2 10 8 8 7 10 14 13 9 3
Height
5731 5729 5738 5740 5737 5737 5736 5736 5738 5737 5736 5731 5731 5731 5728 5728 5728 5728 5727 5724 5721 5719 5718 5717 5717 5717 5713 5709 5710 5713 5714 5714 5716 5717 5720 5723 5726 5730 5734 5737 5738 5740 5742 5747
5723 5723 5734 5730 5729 5730 5732 5731 5734 5733 5731 5726 5726 5725 5725 5723 5726 5727 5724 5722 5720 5719 5718 5717 5716 5715 5715 5712 5710 5710 5714 5711 5713 5714 5719 5722 5724 5727 5730 5734 5738 5741 5744 5746
5716 5725 5724 5723 5723 5724 5727 5728 5728 5728 5724 5722 5722 5721 5721 5721 5724 5726 5723 5721 5719 5719 5718 5718 5718 5718 5716 5713 5713 5717 5719 5718 5715 5715 5718 5722 5725 5726 5731 5735 5739 5740 5743 5745
5706 5713 5717 5717 5717 5720 5720 5725 5723 5721 5720 5719 5717 5718 5717 5718 5720 5722 5721 5719 5718 5718 5719 5719 5719 5718 5717 5716 5716 5717 5719 5720 5720 5721 5723 5727 5727 5728 5734 5736 5739 5740 5740 5742
5701 5707 5709 5708 5716 5712 5719 5715 5716 5716 5714 5714 5714 5713 5715 5714 5717 5719 5719 5718 5718 5718 5718 5719 5719 5719 5716 5717 5718 5718 5719 5719 5720 5721 5724 5727 5728 5730 5732 5733 5737 5737 5737 5740
5690 5693 5697 5700 5707 5703 5711 5707 5707 5709 5709 5708 5711 5708 5712 5712 5715 5717 5717 5717 5717 5718 5717 5718 5719 5719 5718 5718 5719 5720 5721 5723 5722 5722 5722 5723 5726 5726 5729 5731 5732 5734 5735 5737
5682 5686 5691 5695 5694 5696 5699 5702 5701 5703 5703 5706 5706 5704 5709 5708 5711 5715 5715 5715 5715 5715 5716 5716 5718 5718 5718 5718 5719 5720 5720 5721 5722 5722 5722 5723 5724 5725 5727 5727 5729 5731 5732 5733
5671 5676 5680 5688 5689 5693 5694 5696 5695 5696 5699 5702 5700 5700 5707 5704 5706 5711 5714 5713 5713 5713 5713 5714 5715 5716 5716 5716 5718 5718 5718 5718 5719 5719 5720 5721 5721 5722 5724 5727 5728 5727 5728 5728
5660 5664 5670 5677 5681 5684 5686 5686 5692 5692 5691 5693 5693 5697 5702 5703 5704 5709 5711 5712 5712 5711 5712 5712 5712 5712 5713 5713 5714 5715 5715 5716 5716 5716 5717 5718 5719 5721 5722 5723 5725 5726 5725 5724
5649 5655 5661 5667 5670 5673 5676 5682 5683 5682 5683 5687 5687 5693 5696 5699 5700 5704 5709 5711 5709 5708 5709 5709 5709 5709 5709 5711 5712 5713 5713 5713 5714 5715 5716 5716 5716 5717 5717 5717 5719 5719 5720 5720
5641 5645 5652 5654 5659 5665 5667 5670 5675 5677 5677 5679 5682 5685 5692 5694 5696 5699 5703 5705 5704 5706 5707 5707 5706 5707 5706 5707 5708 5709 5710 5711 5711 5711 5711 5711 5711 5711 5711 5712 5714 5714 5713 5711
5627 5632 5639 5648 5651 5656 5660 5664 5668 5669 5671 5676 5677 5681 5686 5689 5689 5692 5696 5698 5700 5701 5703 5705 5704 5703 5704 5704 5704 5704 5704 5705 5705 5705 5704 5704 5701 5703 5704 5704 5704 5704 5706 5700
5618 5619 5626 5637 5642 5645 5649 5653 5658 5660 5664 5667 5670 5679 5679 5682 5685 5686 5689 5691 5693 5696 5697 5699 5700 5700 5700 5700 5700 5700 5700 5700 5700 5699 5698 5698 5697 5697 5697 5698 5698 5697 5692 5689
5608 5612 5618 5628 5636 5640 5642 5646 5652 5654 5655 5661 5660 5673 5672 5676 5678 5681 5682 5684 5686 5688 5691 5690 5690 5693 5695 5694 5694 5694 5694 5694 5693 5694 5694 5693 5691 5693 5694 5692 5689 5687 5688 5687
5601 5605 5611 5619 5626 5629 5632 5637 5641 5645 5648 5652 5659 5663 5667 5670 5673 5675 5677 5678 5679 5680 5681 5685 5686 5687 5687 5686 5687 5688 5687 5687 5686 5688 5687 5688 5687 5687 5686 5683 5683 5681 5682 5680
5596 5601 5604 5609 5617 5620 5622 5626 5630 5635 5640 5643 5648 5652 5659 5663 5666 5667 5670 5672 5673 5674 5675 5676 5677 5681 5682 5681 5680 5680 5680 5680 5681 5680 5680 5679 5678 5677 5675 5675 5673 5673 5672 5669
5592 5596 5600 5605 5610 5611 5613 5621 5622 5626 5631 5635 5640 5647 5652 5654 5657 5661 5664 5665 5666 5667 5670 5671 5672 5674 5677 5676 5674 5674 5674 5673 5672 5673 5671 5671 5670 5669 5668 5665 5664 5663 5661 5659
5582 5590 5595 5599 5602 5605 5612 5616 5615 5620 5624 5631 5637 5642 5647 5648 5650 5653 5654 5656 5660 5661 5663 5665 5666 5667 5668 5669 5668 5667 5668 5667 5666 5665 5663 5662 5660 5659 5658 5658 5657 5654 5652 5649
5575 5578 5588 5592 5598 5600 5604 5610 5608 5608 5618 5624 5627 5634 5638 5640 5641 5647 5650 5651 5653 5655 5656 5658 5659 5659 5659 5660 5660 5661 5661 5660 5659 5658 5657 5656 5654 5653 5652 5651 5649 5646 5643 5639
5571 5574 5578 5582 5590 5591 5597 5602 5598 5604 5609 5618 5619 5624 5630 5631 5633 5639 5643 5646 5647 5649 5651 5651 5652 5652 5652 5652 5652 5652 5652 5653 5653 5652 5651 5649 5647 5646 5644 5641 5638 5634 5631 5627
5565 5567 5572 5577 5579 5584 5590 5595 5596 5598 5610 5602 5605 5615 5623 5625 5629 5631 5633 5637 5640 5642 5643 5643 5643 5644 5644 5645 5644 5644 5645 5644 5644 5643 5642 5640 5639 5637 5634 5630 5627 5624 5620 5617
5557 5563 5568 5573 5574 5578 5585 5590 5591 5593 5595 5597 5608 5611 5614 5617 5619 5620 5625 5629 5632 5634 5634 5635 5634 5635 5635 5636 5636 5637 5636 5634 5633 5631 5629 5628 5626 5624 5621 5618 5615 5612 5609 5606
5551 5558 5562 5565 5569 5571 5576 5581 5584 5584 5588 5593 5597 5602 5606 5609 5611 5613 5617 5621 5624 5625 5626 5626 5626 5627 5627 5628 5628 5628 5627 5625 5623 5620 5618 5616 5614 5611 5609 5606 5603 5600 5598 5594
5540 5547 5552 5557 5563 5566 5569 5573 5577 5578 5580 5584 5588 5591 5596 5600 5602 5605 5608 5611 5615 5616 5617 5617 5618 5618 5618 5618 5618 5617 5615 5613 5611 5610 5608 5605 5602 5599 5597 5593 5590 5587 5583 5579
5534 5537 5543 5549 5553 5557 5562 5565 5568 5571 5572 5575 5579 5582 5585 5590 5592 5596 5598 5600 5603 5604 5605 5606 5608 5608 5609 5608 5606 5605 5603 5602 5600 5597 5595 5592 5589 5586 5582 5579 5576 5573 5569 5565
5524 5527 5532 5540 5546 5547 5554 5557 5560 5564 5564 5566 5569 5573 5575 5577 5580 5584 5587 5589 5590 5594 5596 5596 5596 5598 5598 5596 5595 5593 5591 5589 5586 5584 5581 5578 5574 5570 5567 5564 5560 5556 5552 5547